Wind_Speed
19 21 21 22 22 22 23 24 26 28 29 29 29 30 31 32 31 31 30 29 27 25 23 22 21 20 20 19 19 20 20 21 21 21 22 22 22 22 22 23 23 22
15 17 19 19 20 21 21 21 22 24 25 26 26 26 28 29 30 30 30 31 30 29 27 26 24 23 22 21 20 20 21 22 22 22 22 23 24 24 23 23 23 23
13 14 15 17 17 18 19 19 19 20 21 22 23 23 24 25 26 27 27 28 29 29 28 28 27 26 25 24 22 22 21 21 21 22 22 23 23 23 23 23 22 22
11 12 13 14 15 16 16 17 17 17 17 19 20 20 21 21 22 23 24 24 25 25 26 26 27 27 27 27 26 25 24 23 22 22 22 22 22 22 21 21 20 20
10 11 12 12 13 13 14 14 15 15 15 16 16 17 18 18 18 19 20 20 21 21 22 23 23 24 25 26 26 26 26 25 24 23 22 22 21 20 20 19 19 19
8 10 12 12 12 12 11 12 12 13 13 14 14 14 14 15 16 16 16 16 17 18 18 19 20 20 21 22 23 24 24 24 24 24 23 22 21 20 19 19 18 18
8 9 10 11 12 12 11 10 11 11 11 12 12 12 12 12 12 13 13 14 14 15 15 16 17 17 18 19 20 20 20 20 20 21 22 21 21 20 19 19 18 18
9 9 10 10 11 12 12 12 11 10 10 10 11 11 11 10 10 10 11 11 12 12 13 13 14 15 15 16 17 17 18 17 17 18 18 18 19 19 18 18 18 17
11 11 11 11 11 12 13 13 13 12 10 10 9 10 10 9 8 8 8 9 9 10 10 10 11 11 12 13 14 15 15 16 16 16 16 16 16 16 15 15 16 16
14 14 13 13 13 13 13 14 14 14 13 11 9 8 8 9 8 7 7 7 7 8 8 8 8 8 9 10 11 12 12 13 14 14 14 14 14 14 14 14 14 14
17 17 16 16 16 15 15 15 15 16 15 14 11 9 8 8 8 7 6 5 5 5 6 7 7 6 6 7 8 8 9 10 11 12 13 13 14 14 14 14 13 13
20 20 20 19 19 18 18 18 18 18 18 17 15 13 11 10 10 9 7 6 5 5 5 5 5 5 5 5 5 6 7 8 9 9 11 12 13 13 14 14 14 14
24 24 24 22 22 21 21 21 21 22 21 20 19 18 16 15 13 11 10 9 8 7 7 7 6 5 5 5 4 4 5 6 7 8 8 9 10 12 13 14 14 14
29 29 28 26 25 24 24 23 24 25 24 23 23 22 21 20 18 15 14 13 12 11 10 10 9 8 8 7 6 6 6 6 6 6 7 8 8 9 11 12 13 13
34 33 31 30 28 27 26 26 26 27 27 26 25 25 24 22 21 19 17 16 16 15 13 12 11 11 11 10 9 9 8 8 8 7 7 7 8 9 10 10 11 12
38 36 34 33 32 30 29 29 28 28 28 28 28 27 26 24 22 21 20 19 19 18 17 15 14 14 14 13 12 11 10 10 10 9 9 9 10 10 10 10 10 10
40 39 38 36 35 33 32 32 32 31 30 30 30 30 30 28 25 24 23 23 21 21 19 18 17 17 16 15 14 13 13 12 12 12 12 12 12 11 10 11 11 10
42 41 40 39 38 37 36 36 35 35 34 33 33 34 34 33 30 28 27 26 24 23 21 20 20 20 19 18 17 16 15 14 14 14 14 14 14 12 11 11 13 12
43 43 43 42 41 40 40 39 39 38 38 36 35 35 37 36 34 32 31 30 28 26 23 20 19 20 21 21 21 20 19 18 17 16 14 15 16 15 13 12 13 13
44 43 43 42 42 43 43 43 43 41 41 40 39 38 39 38 36 34 32 31 30 29 26 22 20 20 21 23 23 24 24 23 22 19 16 17 18 17 16 15 15 15
45 44 44 45 45 45 46 46 46 44 44 43 42 42 41 40 37 33 31 29 28 27 26 25 24 24 24 25 26 27 27 27 25 23 21 21 22 22 21 20 19 19
47 47 47 48 48 47 48 48 48 46 46 45 44 43 43 42 39 36 34 32 31 30 30 29 28 27 27 28 28 29 30 28 27 26 25 25 25 26 26 25 24 24
53 52 50 50 49 47 46 48 50 49 47 46 45 44 42 40 39 38 38 37 37 36 35 33 31 30 31 31 31 31 32 32 31 31 30 30 30 30 30 29 29 30
52 51 50 48 46 45 47 50 51 50 48 48 46 43 41 40 39 39 39 40 41 41 40 38 36 34 34 34 34 33 34 35 36 36 36 35 35 35 35 34 34 35
54 52 51 48 45 47 53 55 53 52 50 49 46 45 44 44 44 44 44 43 44 44 44 44 42 40 39 39 38 38 37 38 39 40 41 41 41 41 40 40 41 40
64 59 56 55 52 54 58 56 53 52 49 47 46 47 47 48 49 49 49 48 48 48 48 48 47 44 43 44 43 42 42 42 42 42 43 43 44 45 46 46 47 45
Wind_Direction
51 55 58 59 61 61 61 61 61 61 62 64 67 68 69 70 70 70 69 69 70 71 72 73 73 73 73 74 74 74 73 73 72 72 72 71 69 67 66 65 63 61
40 46 51 55 58 60 60 60 61 61 61 61 63 66 68 70 70 71 71 70 70 70 70 71 71 70 71 71 72 73 72 72 73 73 73 72 71 69 68 67 65 63
25 32 38 44 50 54 57 59 59 60 61 61 61 62 64 67 69 70 71 72 72 71 71 70 70 69 69 68 68 69 69 70 71 71 71 70 69 69 68 67 64 62
11 16 22 29 36 43 48 53 55 57 59 60 61 61 61 64 67 69 69 70 71 72 71 71 70 70 69 68 67 66 65 66 65 65 64 64 64 64 64 63 61 58
359 2 7 11 17 25 34 40 45 49 52 55 59 61 60 61 62 66 68 68 69 71 71 72 71 70 69 68 66 64 62 61 59 58 57 57 58 58 59 58 56 53
344 350 356 359 359 4 14 22 28 35 41 45 50 56 58 58 58 60 64 65 65 66 68 69 69 68 67 65 63 62 60 58 56 54 53 52 52 52 53 54 52 51
318 331 343 347 348 348 350 358 6 14 22 29 36 43 50 54 54 54 57 59 60 61 62 62 62 63 62 61 59 58 57 56 55 53 52 51 49 47 47 48 48 48
293 306 320 329 336 338 337 337 341 348 358 9 16 24 33 42 46 46 46 49 50 51 54 55 55 56 57 57 56 55 54 52 51 52 52 50 48 47 45 44 43 43
278 287 297 306 316 324 327 327 326 326 331 342 353 2 11 20 31 35 36 37 38 37 38 42 47 49 51 53 53 53 51 48 46 46 47 47 47 46 44 40 37 35
270 275 280 287 296 306 313 317 318 315 313 316 326 338 347 353 3 15 22 22 23 23 21 21 28 36 42 47 49 50 50 47 43 41 39 39 42 43 43 38 34 33
262 267 271 275 281 289 297 303 307 306 302 300 301 310 320 326 333 344 356 2 0 2 1 2 7 12 18 30 40 45 45 43 41 38 35 32 31 33 35 37 37 36
256 258 262 267 272 278 284 291 294 294 294 293 292 293 299 304 307 312 319 328 329 324 325 332 340 343 342 355 18 34 36 34 33 31 30 26 23 21 21 26 33 36
252 254 256 260 266 271 275 282 286 286 287 290 291 291 292 294 295 292 292 297 301 302 303 304 307 310 313 322 340 0 12 17 17 16 14 13 12 11 11 14 21 28
249 250 253 257 262 267 271 276 282 285 287 289 292 292 292 292 291 287 282 281 283 287 292 297 299 298 296 305 321 332 337 344 351 353 351 347 347 352 359 6 12 16
247 248 252 255 259 263 266 270 275 280 283 285 287 288 289 288 286 283 278 274 274 276 281 289 297 299 298 301 309 317 320 322 325 323 319 314 315 322 335 351 0 1
249 250 252 254 256 258 261 263 266 270 274 277 278 280 280 278 277 277 276 274 272 272 274 278 285 291 294 297 298 299 303 306 307 304 297 292 293 301 316 330 338 342
251 252 253 254 255 256 258 260 262 265 268 272 274 276 276 274 272 273 274 273 271 269 267 268 271 275 281 287 290 289 290 292 294 293 290 288 291 299 310 316 317 320
249 250 251 252 253 255 256 258 260 262 264 267 270 273 274 274 273 272 271 271 270 268 267 266 265 266 271 278 284 286 287 286 286 291 288 279 284 300 306 306 308 309
246 248 249 250 252 254 256 257 258 259 261 262 264 268 271 273 274 272 270 269 269 269 270 269 267 268 269 273 278 282 284 283 283 289 287 274 279 296 301 299 304 305
245 246 248 250 253 255 256 256 257 257 258 260 260 263 266 269 272 273 271 270 271 271 271 272 273 274 272 273 276 278 280 280 281 286 289 283 284 293 297 297 300 300
246 248 250 253 255 256 255 254 255 256 258 259 259 261 263 265 267 268 266 266 267 268 269 270 272 273 271 271 273 274 274 275 276 281 285 286 286 288 290 292 296 298
249 251 254 255 255 256 256 253 253 255 256 257 258 259 262 264 265 262 259 257 256 258 261 263 266 268 269 269 270 271 270 267 267 270 274 277 280 283 285 287 290 293
252 253 254 255 254 255 257 255 253 254 256 256 256 257 257 259 260 258 257 257 257 257 259 260 261 262 264 267 267 269 269 266 263 264 267 270 273 275 278 281 285 288
252 250 250 252 255 256 256 254 253 252 252 252 253 253 250 250 252 253 255 258 260 261 262 263 262 260 260 262 263 264 265 264 262 263 267 270 271 272 273 275 281 285
248 248 249 251 253 253 251 250 248 247 247 248 250 250 249 249 252 255 256 258 260 262 264 265 265 263 261 261 261 261 262 262 262 263 267 270 271 271 272 273 277 282
245 246 251 252 249 246 246 247 247 247 248 251 252 252 252 255 258 259 259 258 258 259 261 264 265 265 264 264 263 262 262 262 263 263 264 266 267 268 269 272 275 278
Height
11017 11017 11017 11016 11015 11015 11014 11014 11013 11011 11010 11009 11008 11007 11006 11005 11004 11004 11003 11002 11001 11001 11001 11001 11000 11000 11000 10999 10999 10999 10998 10997 10997 10996 10995 10995 10994 10993 10992 10991 10991 10991
11018 11018 11017 11017 11016 11016 11015 11015 11014 11013 11012 11011 11010 11009 11008 11008 11007 11006 11005 11005 11004 11004 11004 11004 11003 11003 11002 11002 11002 11001 11000 10999 10999 10998 10997 10996 10996 10995 10994 10994 10994 10993
11018 11018 11018 11017 11017 11016 11016 11015 11015 11014 11014 11013 11012 11011 11010 11009 11009 11008 11008 11007 11007 11006 11006 11006 11005 11005 11005 11004 11004 11003 11002 11002 11001 11000 10999 10998 10997 10997 10996 10996 10996 10996
11018 11018 11018 11018 11017 11017 11016 11016 11015 11015 11015 11014 11013 11013 11012 11011 11011 11010 11010 11009 11009 11008 11008 11008 11007 11007 11007 11006 11006 11005 11005 11004 11003 11002 11001 11000 10999 10999 10998 10998 10998 10998
11018 11018 11018 11018 11018 11017 11017 11017 11016 11015 11015 11015 11014 11014 11013 11012 11012 11011 11011 11011 11010 11010 11010 11009 11009 11009 11008 11008 11007 11007 11006 11006 11005 11004 11003 11003 11002 11001 11001 11001 11000 11000
11018 11018 11018 11018 11018 11018 11017 11017 11016 11016 11015 11015 11014 11014 11014 11013 11013 11012 11012 11012 11012 11011 11011 11010 11010 11009 11009 11008 11008 11008 11007 11007 11007 11006 11006 11005 11005 11004 11003 11003 11003 11002
11017 11017 11017 11017 11017 11017 11017 11017 11017 11016 11016 11015 11014 11014 11014 11013 11013 11013 11013 11013 11012 11012 11011 11011 11010 11010 11009 11009 11009 11009 11008 11008 11008 11008 11008 11007 11007 11006 11006 11005 11005 11004
11017 11017 11016 11016 11017 11016 11016 11016 11016 11016 11016 11015 11015 11014 11014 11014 11013 11013 11013 11013 11013 11012 11012 11011 11011 11011 11010 11010 11010 11010 11010 11010 11010 11010 11009 11009 11009 11009 11008 11008 11007 11006
11016 11016 11016 11015 11015 11015 11015 11015 11015 11015 11015 11015 11015 11015 11014 11014 11014 11014 11013 11013 11013 11013 11013 11012 11012 11012 11011 11011 11011 11011 11011 11011 11011 11011 11011 11010 11010 11010 11010 11010 11009 11008
11015 11015 11015 11014 11014 11014 11014 11014 11014 11014 11014 11014 11014 11014 11014 11014 11014 11014 11013 11013 11013 11013 11013 11013 11013 11013 11012 11012 11012 11012 11012 11012 11012 11012 11012 11011 11011 11011 11011 11011 11010 11009
11014 11014 11013 11013 11013 11013 11013 11013 11013 11013 11013 11013 11013 11014 11014 11014 11014 11013 11013 11013 11013 11013 11013 11013 11013 11013 11013 11013 11012 11012 11012 11012 11012 11012 11012 11012 11012 11012 11012 11011 11011 11010
11012 11012 11012 11012 11012 11012 11012 11012 11012 11012 11011 11012 11012 11013 11013 11014 11014 11013 11013 11013 11013 11013 11013 11013 11013 11013 11013 11013 11013 11013 11013 11013 11013 11013 11013 11013 11012 11012 11012 11012 11012 11011
11009 11009 11009 11010 11011 11011 11011 11011 11011 11010 11010 11011 11011 11012 11013 11013 11013 11013 11013 11012 11012 11012 11012 11012 11013 11013 11013 11013 11013 11014 11013 11013 11013 11013 11013 11012 11012 11012 11012 11012 11012 11012
11006 11006 11007 11008 11008 11009 11009 11010 11010 11009 11010 11010 11010 11011 11012 11012 11012 11012 11012 11011 11011 11011 11012 11012 11012 11013 11013 11013 11014 11014 11014 11013 11013 11012 11012 11012 11012 11012 11012 11012 11012 11012
11002 11003 11004 11005 11006 11006 11007 11008 11008 11008 11008 11009 11009 11009 11010 11010 11011 11011 11011 11010 11010 11010 11011 11011 11012 11012 11013 11013 11013 11014 11013 11013 11012 11012 11011 11011 11010 11010 11011 11011 11012 11012
10998 10999 11001 11001 11002 11003 11004 11005 11005 11005 11006 11007 11007 11007 11008 11008 11008 11008 11009 11009 11009 11009 11009 11010 11010 11010 11011 11011 11012 11012 11012 11012 11011 11011 11010 11009 11008 11009 11009 11010 11010 11011
10995 10996 10997 10998 10999 11000 11001 11001 11002 11002 11003 11004 11005 11005 11005 11005 11005 11006 11006 11007 11007 11007 11007 11008 11008 11008 11008 11009 11009 11010 11010 11010 11010 11009 11008 11007 11006 11007 11008 11008 11009 11009
10991 10993 10994 10995 10996 10997 10998 10998 10998 10999 11000 11001 11002 11002 11001 11001 11002 11003 11003 11004 11004 11004 11005 11005 11005 11005 11006 11007 11007 11007 11007 11007 11007 11007 11006 11005 11004 11005 11006 11007 11007 11007
10987 10988 10990 10991 10993 10993 10994 10994 10995 10995 10996 10996 10998 10998 10998 10997 10998 10999 11000 11000 11001 11001 11002 11003 11003 11003 11004 11004 11005 11005 11005 11005 11004 11004 11004 11003 11003 11004 11005 11005 11005 11005
10981 10983 10986 10987 10988 10989 10990 10990 10991 10991 10992 10992 10993 10994 10994 10994 10994 10995 10996 10996 10997 10998 10999 11000 11000 11001 11001 11001 11002 11002 11002 11002 11001 11002 11002 11002 11002 11003 11003 11003 11003 11003
10977 10979 10980 10981 10983 10984 10985 10986 10986 10987 10987 10988 10989 10989 10990 10990 10991 10992 10992 10993 10994 10994 10995 10996 10997 10998 10998 10998 10998 10998 10998 10998 10998 10999 10999 11000 10999 11000 11000 11000 11001 11001
10971 10973 10974 10975 10977 10979 10980 10981 10981 10981 10982 10983 10984 10985 10985 10986 10987 10988 10989 10989 10990 10990 10991 10992 10993 10993 10994 10994 10995 10995 10995 10995 10995 10995 10996 10997 10996 10996 10996 10997 10998 10998
10964 10966 10968 10970 10972 10974 10975 10975 10975 10976 10977 10977 10979 10981 10982 10982 10983 10983 10984 10985 10986 10987 10987 10988 10989 10989 10989 10990 10991 10991 10991 10991 10991 10991 10992 10992 10993 10993 10993 10993 10994 10994
10956 10958 10961 10966 10971 10973 10970 10968 10968 10969 10970 10970 10972 10974 10976 10977 10978 10978 10979 10980 10981 10982 10983 10984 10985 10985 10985 10986 10986 10987 10987 10987 10987 10987 10987 10988 10988 10988 10988 10989 10989 10990
10948 10950 10956 10965 10971 10967 10959 10958 10960 10960 10962 10965 10968 10969 10970 10971 10973 10974 10975 10975 10976 10977 10978 10978 10979 10980 10981 10982 10982 10983 10984 10984 10984 10985 10984 10984 10984 10984 10984 10984 10985 10985
10942 10946 10952 10960 10963 10956 10950 10951 10954 10956 10959 10962 10963 10964 10965 10966 10968 10968 10970 10970 10970 10971 10972 10972 10973 10974 10975 10976 10977 10978 10979 10980 10981 10981 10981 10980 10980 10979 10979 10979 10980 10980